User: anonymous   Login
Location: Albany
(35.0170°S, 117.8920°E)
Time: 22:42:17
(UTC+08:00)
Language:

SR - Orbit

View from above orbital plane
View from above orbital plane
View from above satellite
View from above satellite

Ground track
Ground track

The orbit data is extracted from the following two-line orbital elements,

1    46U 60007B   21025.11615062 -.00000022  00000-0  18876-4 0  9994
2    46  66.6899 167.5796 0214609 324.3871  34.3071 14.49360692171222
Epoch (UTC): 25 January 2021 02:47:15
Eccentricity: 0.0214609
inclination: 66.6899°
perigee height: 575 km
apogee height: 880 km
right ascension of ascending node: 167.5796°
argument of perigee: 324.3871°
revolutions per day: 14.49360692
mean anomaly at epoch: 34.3071°
orbit number at epoch: 17122

The dashed part of the orbit path shows where the satellite is in the earth's shadow,  

DLR